PGT6824 EPRZ-LTAI

Flight info

Callsign PGT6824
Flight time N/A
Altitude 35000
Route LUMEQ DCT PODAN DCT HATIP DCT KUSIS DCT APROB DCT ADORU UL606 CRD UL854 KOZLU
Aircraft A20N/M-SDE2E3FGHIRWXY/LB1

Departure

Time 2026-05-06 12:33
Airport Rzeszów-Jasionka Airport (EPRZ)

Arrival

Time N/A
Airport Antalya International Airport (LTAI)
Time Latitude Longitude Altitude Speed Heading
2026-05-06 11:51 50.11412 22.02535 682 ft 0 kts
2026-05-06 12:23 50.11401 22.02534 682 ft 3 kts
2026-05-06 12:23 50.11377 22.02534 682 ft 3 kts
2026-05-06 12:23 50.11361 22.02534 685 ft 3 kts
2026-05-06 12:23 50.11338 22.02529 685 ft 3 kts 21°
2026-05-06 12:24 50.11323 22.02513 687 ft 2 kts 89°
2026-05-06 12:24 50.11323 22.02511 687 ft 0 kts 91°
2026-05-06 12:27 50.11323 22.02538 684 ft 6 kts 91°
2026-05-06 12:27 50.11321 22.02653 685 ft 15 kts 91°
2026-05-06 12:28 50.11262 22.02745 686 ft 14 kts 178°
2026-05-06 12:28 50.11162 22.02742 687 ft 15 kts 181°
2026-05-06 12:28 50.11068 22.02739 693 ft 11 kts 181°
2026-05-06 12:28 50.11000 22.02756 693 ft 10 kts 143°
2026-05-06 12:29 50.10984 22.02885 694 ft 16 kts 91°
2026-05-06 12:29 50.10980 22.03100 688 ft 24 kts 91°
2026-05-06 12:29 50.10976 22.03406 690 ft 31 kts 91°
2026-05-06 12:29 50.10972 22.03750 684 ft 32 kts 91°
2026-05-06 12:30 50.10968 22.04054 682 ft 26 kts 92°
2026-05-06 12:30 50.10963 22.04352 679 ft 23 kts 90°
2026-05-06 12:30 50.10953 22.04514 680 ft 15 kts 111°
2026-05-06 12:30 50.10956 22.04588 679 ft 1 kts
2026-05-06 12:31 50.10964 22.04575 678 ft 1 kts 298°
2026-05-06 12:31 50.10962 22.04552 680 ft 0 kts 270°
2026-05-06 12:31 50.10962 22.04551 680 ft 0 kts 270°
2026-05-06 12:32 50.10962 22.04505 680 ft 15 kts 270°
2026-05-06 12:32 50.10966 22.03984 682 ft 82 kts 270°
2026-05-06 12:32 50.10983 22.02792 689 ft 135 kts 271°
2026-05-06 12:32 50.11014 22.01136 889 ft 156 kts 268°
2026-05-06 12:33 50.11043 21.99532 1663 ft 143 kts 264°
2026-05-06 12:33 50.11081 21.97972 2251 ft 146 kts 263°
2026-05-06 12:33 50.11112 21.96344 2765 ft 156 kts 262°
2026-05-06 12:33 50.11079 21.94564 3147 ft 173 kts 249°
2026-05-06 12:34 50.10460 21.92894 3860 ft 186 kts 224°
2026-05-06 12:34 50.09425 21.91424 4639 ft 213 kts 218°
2026-05-06 12:34 50.08215 21.89909 5527 ft 235 kts 219°
2026-05-06 12:34 50.06906 21.88223 6306 ft 250 kts 221°
2026-05-06 12:35 50.05604 21.86440 7420 ft 247 kts 223°
2026-05-06 12:35 50.04324 21.84619 8382 ft 257 kts 224°
2026-05-06 12:35 50.02970 21.82656 9087 ft 272 kts 224°
2026-05-06 12:35 50.01593 21.80652 10162 ft 273 kts 224°
2026-05-06 12:36 50.00162 21.78561 10732 ft 293 kts 224°
2026-05-06 12:36 49.98630 21.76331 11244 ft 310 kts 224°
2026-05-06 12:36 49.97009 21.73979 11829 ft 324 kts 224°
2026-05-06 12:36 49.95355 21.71581 12860 ft 323 kts 224°
2026-05-06 12:37 49.93705 21.69189 13825 ft 326 kts 224°
2026-05-06 12:37 49.92028 21.66761 14522 ft 334 kts 223°
2026-05-06 12:37 49.90317 21.64285 15328 ft 336 kts 223°
2026-05-06 12:37 49.88601 21.61806 16158 ft 339 kts 223°
2026-05-06 12:38 49.86864 21.59301 16928 ft 344 kts 223°
2026-05-06 12:38 49.85015 21.56966 17555 ft 352 kts 214°
2026-05-06 12:38 49.82826 21.55214 18280 ft 358 kts 202°
2026-05-06 12:38 49.80409 21.54202 18929 ft 364 kts 192°
2026-05-06 12:39 49.77896 21.53565 19602 ft 368 kts 192°
2026-05-06 12:39 49.75353 21.52907 20251 ft 371 kts 193°
2026-05-06 12:39 49.72808 21.52236 20978 ft 373 kts 193°
2026-05-06 12:39 49.70216 21.51542 21393 ft 383 kts 192°
2026-05-06 12:40 49.67577 21.50838 22034 ft 386 kts 192°
2026-05-06 12:40 49.64909 21.50126 22577 ft 392 kts 192°
2026-05-06 12:40 49.62221 21.49420 23337 ft 391 kts 192°
2026-05-06 12:40 49.59526 21.48711 23863 ft 396 kts 193°
2026-05-06 12:41 49.56799 21.47996 24334 ft 401 kts 193°
2026-05-06 12:41 49.54054 21.47277 24923 ft 401 kts 192°
2026-05-06 12:41 49.51276 21.46547 25365 ft 406 kts 192°
2026-05-06 12:41 49.48472 21.45808 25745 ft 413 kts 192°
2026-05-06 12:42 49.45637 21.45066 26301 ft 412 kts 193°
2026-05-06 12:42 49.42770 21.44611 26812 ft 418 kts 184°
2026-05-06 12:42 49.39838 21.44829 27238 ft 426 kts 176°
2026-05-06 12:42 49.36904 21.45726 27596 ft 435 kts 168°
2026-05-06 12:43 49.33990 21.47001 28030 ft 437 kts 167°
2026-05-06 12:43 49.31050 21.48285 28470 ft 440 kts 168°
2026-05-06 12:43 49.28081 21.49561 28741 ft 446 kts 167°
2026-05-06 12:43 49.25086 21.50842 29146 ft 448 kts 167°
2026-05-06 12:44 49.22076 21.52127 29532 ft 451 kts 168°
2026-05-06 12:44 49.19042 21.53419 29911 ft 454 kts 168°
2026-05-06 12:44 49.15993 21.54712 30262 ft 455 kts 167°
2026-05-06 12:44 49.12936 21.56009 30665 ft 457 kts 168°
2026-05-06 12:45 49.09875 21.57307 31036 ft 458 kts 167°
2026-05-06 12:45 49.06805 21.58607 31516 ft 456 kts 167°
2026-05-06 12:45 49.00724 21.61179 32540 ft 451 kts 168°
2026-05-06 12:46 48.97705 21.62455 32993 ft 450 kts 168°
2026-05-06 12:46 48.94734 21.63705 33454 ft 448 kts 168°
2026-05-06 12:46 48.91735 21.64964 33887 ft 446 kts 168°
2026-05-06 12:46 48.88745 21.66219 34255 ft 445 kts 168°
2026-05-06 12:47 48.85760 21.67471 34565 ft 445 kts 168°
2026-05-06 12:47 48.82772 21.68723 34829 ft 446 kts 168°
2026-05-06 12:47 48.79785 21.69973 34884 ft 445 kts 168°
2026-05-06 12:48 48.73874 21.72763 34904 ft 447 kts 161°
2026-05-06 12:48 48.68263 21.76916 34906 ft 450 kts 156°
2026-05-06 12:49 48.62695 21.81237 34903 ft 450 kts 156°
2026-05-06 12:49 48.57121 21.85527 34911 ft 450 kts 156°
2026-05-06 12:50 48.51542 21.89803 34903 ft 449 kts 156°
2026-05-06 12:50 48.45970 21.94063 34903 ft 449 kts 156°
2026-05-06 12:51 48.40394 21.98315 34905 ft 449 kts 156°
2026-05-06 12:51 48.34815 22.02558 34896 ft 450 kts 156°
2026-05-06 12:52 48.29227 22.06798 34905 ft 450 kts 156°
2026-05-06 12:52 48.23634 22.11032 34909 ft 450 kts 156°
2026-05-06 12:53 48.18031 22.15263 34914 ft 451 kts 157°
2026-05-06 12:53 48.12417 22.19492 34921 ft 452 kts 157°
2026-05-06 12:54 48.06795 22.23716 34930 ft 453 kts 157°
2026-05-06 12:54 48.01160 22.27939 34924 ft 453 kts 156°
2026-05-06 12:55 47.95553 22.32132 34926 ft 454 kts 157°
2026-05-06 12:55 47.89899 22.36350 34935 ft 455 kts 157°
2026-05-06 12:56 47.84231 22.40543 34942 ft 455 kts 158°
2026-05-06 12:56 47.78530 22.44653 34949 ft 456 kts 158°
2026-05-06 12:57 47.72786 22.48795 34940 ft 456 kts 157°
2026-05-06 12:57 47.67072 22.52922 34953 ft 457 kts 157°
2026-05-06 12:58 47.61351 22.57044 34960 ft 457 kts 158°
2026-05-06 12:58 47.55658 22.61132 34964 ft 458 kts 158°
2026-05-06 12:59 47.49923 22.65241 34967 ft 458 kts 158°
2026-05-06 12:59 47.44179 22.69344 34944 ft 459 kts 157°
2026-05-06 13:00 47.38425 22.73447 34949 ft 459 kts 158°
2026-05-06 13:00 47.32665 22.77542 34952 ft 460 kts 158°
2026-05-06 13:01 47.26897 22.81632 34956 ft 460 kts 158°
2026-05-06 13:01 47.21121 22.85719 34955 ft 461 kts 158°
2026-05-06 13:02 47.15340 22.89799 34936 ft 461 kts 157°
2026-05-06 13:02 47.09547 22.93880 34954 ft 462 kts 157°
2026-05-06 13:03 47.03744 22.97957 34953 ft 463 kts 157°
2026-05-06 13:03 46.97928 23.02032 34967 ft 463 kts 157°
2026-05-06 13:04 46.92106 23.06103 34951 ft 464 kts 158°
2026-05-06 13:04 46.86280 23.10164 34952 ft 464 kts 157°
2026-05-06 13:05 46.80441 23.14227 34951 ft 465 kts 157°
2026-05-06 13:05 46.74602 23.18280 34956 ft 465 kts 157°
2026-05-06 13:06 46.68756 23.22329 34951 ft 466 kts 157°
2026-05-06 13:06 46.62913 23.26364 34959 ft 464 kts 158°
2026-05-06 13:07 46.57041 23.30407 34954 ft 469 kts 157°
2026-05-06 13:07 46.51159 23.34452 34955 ft 468 kts 157°
2026-05-06 13:08 46.45272 23.38489 34957 ft 468 kts 157°
2026-05-06 13:08 46.39376 23.42521 34956 ft 468 kts 157°
2026-05-06 13:09 46.33481 23.46545 34948 ft 469 kts 157°
2026-05-06 13:09 46.27555 23.50578 34939 ft 472 kts 157°
2026-05-06 13:10 46.21613 23.54613 34941 ft 471 kts 157°
2026-05-06 13:10 46.16681 23.57956 34935 ft 471 kts 157°
2026-05-06 13:11 46.10750 23.61967 34942 ft 471 kts 157°
2026-05-06 13:11 46.04818 23.65967 34945 ft 472 kts 157°
2026-05-06 13:12 45.98832 23.69994 34942 ft 475 kts 157°
2026-05-06 13:12 45.92855 23.74009 34946 ft 474 kts 157°
2026-05-06 13:13 45.86867 23.78019 34946 ft 475 kts 157°
2026-05-06 13:13 45.80875 23.82023 34947 ft 475 kts 157°
2026-05-06 13:14 45.74890 23.86012 34944 ft 474 kts 157°
2026-05-06 13:14 45.68911 23.89987 34961 ft 473 kts 157°
2026-05-06 13:15 45.62947 23.93945 34967 ft 473 kts 157°
2026-05-06 13:15 45.56986 23.97892 34967 ft 472 kts 157°
2026-05-06 13:16 45.51070 24.01796 34973 ft 472 kts 157°
2026-05-06 13:16 45.45061 24.05751 34996 ft 478 kts 157°
2026-05-06 13:17 45.39033 24.09715 34990 ft 477 kts 157°
2026-05-06 13:17 45.33015 24.13661 34998 ft 477 kts 157°
2026-05-06 13:18 45.26990 24.17602 34989 ft 477 kts 157°
2026-05-06 13:18 45.20953 24.21542 34979 ft 478 kts 157°
2026-05-06 13:19 45.14906 24.25479 34974 ft 478 kts 157°
2026-05-06 13:19 45.08853 24.29410 34990 ft 479 kts 157°
2026-05-06 13:20 45.02794 24.33336 34986 ft 479 kts 157°
2026-05-06 13:20 44.96722 24.37262 34989 ft 480 kts 157°
2026-05-06 13:21 44.90637 24.41185 34970 ft 482 kts 157°
2026-05-06 13:21 44.84536 24.45111 34987 ft 482 kts 157°
2026-05-06 13:22 44.78425 24.49034 34994 ft 483 kts 157°
2026-05-06 13:22 44.72307 24.52953 35001 ft 483 kts 157°
2026-05-06 13:23 44.66224 24.56839 34978 ft 484 kts 157°
2026-05-06 13:23 44.60085 24.60753 34989 ft 485 kts 157°
2026-05-06 13:24 44.53941 24.64661 34997 ft 485 kts 157°
2026-05-06 13:24 44.47784 24.68568 35001 ft 486 kts 157°
2026-05-06 13:25 44.41625 24.72467 35005 ft 486 kts 157°
2026-05-06 13:25 44.35456 24.76363 34992 ft 487 kts 157°
2026-05-06 13:26 44.29280 24.80255 34995 ft 487 kts 157°
2026-05-06 13:26 44.23093 24.84144 34997 ft 488 kts 157°
2026-05-06 13:27 44.16902 24.88027 34997 ft 488 kts 157°
2026-05-06 13:27 44.10703 24.91906 34994 ft 489 kts 157°
2026-05-06 13:28 44.04490 24.95790 34994 ft 490 kts 157°
2026-05-06 13:28 43.98317 24.99640 34998 ft 490 kts 157°
2026-05-06 13:29 43.92290 25.04072 34998 ft 491 kts 151°
2026-05-06 13:29 43.86337 25.08720 35000 ft 491 kts 151°
2026-05-06 13:30 43.80372 25.13342 35001 ft 491 kts 151°
2026-05-06 13:30 43.74403 25.17936 34999 ft 491 kts 151°
2026-05-06 13:31 43.68425 25.22523 34986 ft 491 kts 151°
2026-05-06 13:31 43.62444 25.27101 34990 ft 492 kts 151°
2026-05-06 13:32 43.56461 25.31671 34989 ft 492 kts 151°
2026-05-06 13:32 43.50471 25.36236 34990 ft 492 kts 151°
2026-05-06 13:33 43.44482 25.40790 34973 ft 492 kts 151°
2026-05-06 13:33 43.38489 25.45335 34990 ft 492 kts 151°
2026-05-06 13:34 43.32491 25.49875 34993 ft 492 kts 151°
2026-05-06 13:34 43.26492 25.54405 34994 ft 492 kts 151°
2026-05-06 13:35 43.20529 25.58898 34979 ft 492 kts 151°
2026-05-06 13:35 43.14526 25.63411 34983 ft 493 kts 151°
2026-05-06 13:36 43.08510 25.67924 34984 ft 493 kts 151°
2026-05-06 13:36 43.02493 25.72427 34986 ft 493 kts 151°
2026-05-06 13:37 42.96470 25.76924 34994 ft 494 kts 151°
2026-05-06 13:37 42.90441 25.81415 34992 ft 494 kts 151°
2026-05-06 13:38 42.84403 25.85904 35005 ft 495 kts 152°
2026-05-06 13:38 42.78358 25.90388 35019 ft 495 kts 152°
2026-05-06 13:39 42.72303 25.94867 35012 ft 494 kts 151°
2026-05-06 13:39 42.66255 25.99333 35018 ft 495 kts 151°
2026-05-06 13:40 42.60196 26.03797 35023 ft 495 kts 152°
2026-05-06 13:40 42.54135 26.08251 35018 ft 495 kts 152°